Wind_Speed
55 59 62 60 59 58 58 59 60 59 58 59 59 58 56 55 55 54 53 52 51 48 46 45 43 41 39 38 36 34 33 32 31 30 29 29 28 28 28 27 27 27 28 28
53 58 57 57 58 60 59 58 59 59 59 60 61 61 59 58 57 56 55 53 52 51 49 48 46 44 41 39 38 36 35 34 33 32 31 31 31 30 29 29 29 29 29 29
52 51 54 58 60 61 62 59 57 58 58 60 62 64 63 60 58 58 57 55 54 53 51 49 48 45 43 42 40 38 37 36 35 34 34 33 32 31 31 31 31 31 31 31
48 49 53 58 61 62 63 59 56 57 58 60 62 66 65 62 60 58 57 56 55 53 52 51 49 47 45 43 41 40 39 38 37 37 36 35 33 32 32 33 33 33 33 32
45 46 51 56 59 60 60 58 58 57 57 58 61 66 67 64 62 59 57 56 55 54 53 51 51 49 47 45 43 41 40 40 39 38 37 36 35 34 34 35 35 34 34 34
42 45 50 53 54 57 57 57 57 58 58 61 61 64 68 65 62 58 56 55 55 54 53 52 51 50 49 47 45 43 42 41 40 39 39 37 36 35 36 36 36 35 35 35
41 44 47 50 54 56 57 57 57 58 60 62 60 63 68 64 61 58 56 55 54 54 54 52 51 50 49 48 46 44 43 42 41 40 39 38 37 37 37 37 37 36 36 35
40 42 44 47 51 54 57 57 58 57 58 59 59 62 64 60 58 57 55 54 54 54 53 52 51 50 49 48 47 46 45 43 42 41 40 39 38 38 37 37 37 37 37 37
37 39 41 44 47 52 55 57 55 53 53 54 57 59 61 58 56 56 56 54 54 53 53 52 51 50 49 48 47 46 45 43 42 41 40 40 39 39 38 37 37 37 37 37
35 36 39 41 45 50 54 54 54 55 52 53 55 56 58 55 53 52 53 54 53 52 52 52 51 50 49 48 47 46 45 44 43 42 41 40 40 39 38 38 38 38 38 37
35 35 35 39 42 45 51 55 55 55 54 51 50 51 52 50 49 49 50 51 52 51 51 50 50 49 49 48 47 46 45 44 43 42 41 41 40 39 39 39 38 38 38 38
35 36 35 37 38 42 47 52 56 56 55 52 48 46 47 45 44 45 47 49 50 50 50 49 49 48 48 48 47 46 45 44 43 42 41 41 40 39 39 38 38 38 38 38
33 36 35 35 38 41 44 48 52 54 54 53 51 45 43 42 41 42 44 46 47 47 48 48 48 47 47 47 46 45 44 44 43 42 41 40 39 39 39 39 38 38 38 37
34 36 37 37 37 39 43 45 48 52 56 55 52 45 42 41 40 40 40 42 42 44 45 45 45 46 46 45 45 44 43 42 42 41 40 39 39 38 38 38 38 37 37 36
36 37 38 38 37 38 40 43 47 50 51 52 50 46 44 41 41 39 39 39 40 40 42 42 42 43 44 44 43 42 41 41 41 40 39 39 38 38 38 38 37 36 36 36
35 36 39 39 39 39 39 41 43 46 47 49 50 47 44 43 42 40 39 39 38 39 39 40 40 40 41 42 41 41 40 40 39 38 38 38 38 37 37 37 36 35 35 35
33 34 37 39 38 39 40 40 42 44 46 48 50 47 45 44 42 41 40 39 38 39 40 40 39 39 39 40 40 40 40 39 39 38 37 36 35 35 35 34 34 34 34 34
32 33 36 38 38 39 38 39 39 40 41 45 48 48 47 45 43 42 41 41 40 39 41 41 40 40 39 39 39 39 38 38 37 36 36 35 34 33 33 33 34 34 34 34
32 33 35 37 39 39 37 36 37 39 39 41 45 47 47 47 48 45 42 41 41 41 41 41 41 41 40 39 38 37 37 37 36 35 35 34 34 33 33 33 33 33 33 33
30 33 34 36 37 38 36 35 37 39 40 41 43 45 46 48 48 46 44 44 43 41 41 40 40 40 39 38 37 37 36 36 35 34 33 33 33 33 33 32 32 32 32 32
27 32 35 35 36 36 35 34 38 42 40 40 43 44 46 47 45 44 45 45 45 44 42 40 39 39 38 38 37 36 35 35 34 34 33 33 32 32 32 32 32 32 32 32
27 29 33 35 35 34 33 34 37 38 40 40 42 43 45 45 45 44 45 45 46 45 43 42 40 39 38 38 37 36 35 34 34 33 33 33 32 32 32 32 32 32 32 32
28 29 31 34 34 33 34 35 35 38 40 41 41 42 44 45 44 44 44 44 45 45 44 43 41 40 39 38 37 36 35 35 34 34 33 32 32 32 32 32 31 31 31 31
30 32 33 35 34 34 33 35 37 39 41 42 41 41 43 43 44 44 44 44 44 44 44 43 42 40 39 38 37 36 36 35 34 34 33 33 32 31 31 31 30 30 30 30
30 33 34 35 33 35 33 34 36 39 41 42 42 40 41 42 42 42 43 43 43 43 43 42 41 40 39 38 37 36 36 35 34 33 33 32 31 31 30 30 30 30 30 30
29 32 35 34 33 35 35 35 36 37 39 41 42 41 41 41 40 41 41 41 42 42 42 41 40 40 39 38 37 36 35 34 33 33 32 31 31 30 30 29 29 29 29 29
Wind_Direction
237 235 233 232 232 233 233 233 232 230 230 230 228 227 224 223 223 222 221 221 221 221 221 222 224 226 228 230 232 234 236 239 242 244 247 250 253 256 259 262 266 270 273 276
234 233 232 232 232 231 231 231 231 229 229 230 229 228 226 224 223 222 222 222 222 222 222 223 225 227 229 231 233 235 238 240 243 245 248 251 253 256 259 263 266 270 274 276
234 232 230 229 229 229 229 229 229 229 230 231 230 229 226 225 224 223 222 222 223 223 224 225 226 228 230 232 234 236 238 240 243 246 249 252 254 257 260 263 266 270 272 275
234 229 228 228 228 227 228 228 229 229 230 231 230 231 226 225 225 224 223 223 223 224 225 226 227 229 230 232 234 236 238 241 244 247 250 252 254 256 259 262 265 268 272 275
233 230 228 228 227 227 227 227 228 229 231 233 231 233 226 226 225 224 224 224 225 225 226 227 229 230 231 232 234 237 239 241 244 247 249 251 254 256 259 262 265 268 272 274
232 229 229 227 225 226 225 225 227 228 230 233 230 233 230 226 225 225 225 225 226 227 227 228 229 230 231 233 235 237 239 241 244 246 249 252 254 256 259 262 265 268 271 273
231 228 227 225 224 223 222 222 225 228 229 232 230 233 231 226 225 226 226 226 227 228 229 229 230 231 232 233 235 237 239 242 244 247 249 252 254 256 259 262 265 267 270 272
231 226 224 222 222 222 221 221 222 227 230 232 231 233 232 228 226 226 226 227 228 229 229 229 231 232 233 234 235 237 239 242 244 247 249 251 253 256 259 262 264 267 269 271
232 229 224 222 221 222 221 221 222 226 230 232 233 233 232 229 227 226 226 227 227 228 229 230 231 232 234 235 236 238 239 241 243 246 248 251 253 255 258 260 263 265 268 270
231 229 223 222 221 221 221 220 221 224 227 231 234 233 231 229 229 227 226 227 228 228 229 230 231 232 234 235 236 238 239 241 243 245 248 250 252 254 256 259 261 264 267 269
229 228 223 220 220 218 218 218 220 224 228 230 233 232 228 230 229 227 226 226 227 228 229 230 231 232 233 235 236 237 240 241 243 245 248 250 251 253 255 258 260 263 265 268
227 228 226 222 219 217 219 220 221 222 224 227 230 231 227 228 227 225 223 223 225 226 227 229 230 231 233 235 236 238 240 242 244 246 247 248 250 252 254 256 259 262 265 267
225 226 226 222 221 218 218 219 222 223 224 226 227 227 226 226 223 223 221 221 222 224 225 227 229 231 232 234 236 238 239 241 243 244 247 249 250 252 254 256 258 261 264 267
225 225 225 225 224 222 219 219 219 221 223 225 225 224 223 223 221 219 219 220 220 222 224 225 228 230 232 233 236 237 239 240 241 243 245 248 250 253 254 256 259 262 264 267
228 227 226 227 226 225 221 220 220 221 223 224 223 222 220 220 220 217 216 217 218 220 222 224 226 228 231 233 235 237 238 239 241 242 244 247 249 252 254 257 259 262 265 267
231 230 228 228 227 227 225 221 221 221 222 223 221 220 218 217 217 217 215 214 216 217 219 222 225 227 229 231 233 235 238 240 241 242 244 246 249 251 254 257 259 261 264 266
234 233 230 228 228 230 227 222 223 222 221 221 221 219 218 217 216 214 213 212 212 214 216 219 222 225 227 229 231 233 236 239 241 242 244 247 249 252 254 256 258 261 263 266
232 232 232 230 228 231 227 226 225 224 222 221 220 218 219 218 216 215 214 213 212 214 216 219 221 224 226 228 230 232 234 237 240 242 244 247 249 252 254 257 259 261 263 266
233 233 233 233 232 231 225 224 223 223 221 219 219 218 218 218 218 216 215 215 214 214 216 218 221 223 226 228 230 231 233 236 238 241 244 246 249 252 255 258 259 261 264 266
233 232 233 232 233 232 225 222 223 224 222 218 218 217 217 218 219 216 216 216 215 215 217 219 221 223 226 228 230 231 233 236 238 242 244 247 249 252 255 258 259 261 264 267
232 230 230 230 232 231 225 222 222 224 220 219 219 218 219 220 219 217 216 217 218 218 218 219 221 223 225 227 230 231 234 236 239 242 245 248 250 253 256 258 259 262 265 268
229 229 229 229 230 229 224 221 221 222 219 219 218 219 219 219 218 217 216 217 218 220 220 220 221 223 225 227 230 232 234 237 239 242 245 248 252 254 256 257 260 263 265 268
228 227 229 229 228 227 224 221 218 217 216 216 217 217 217 217 218 217 216 216 218 220 220 221 222 224 225 227 230 232 234 237 240 243 246 249 252 254 256 258 260 263 266 268
229 227 228 226 224 224 222 218 216 215 215 215 216 217 218 217 218 218 217 217 219 220 220 220 221 222 223 225 229 231 233 236 240 243 246 248 251 253 256 259 261 264 266 269
229 227 227 225 223 222 219 215 215 215 215 215 215 217 218 218 218 217 216 217 218 219 220 220 221 222 222 225 228 230 233 236 239 242 245 248 250 253 256 259 262 265 267 270
224 226 226 223 220 219 214 213 213 212 212 214 215 216 217 218 217 216 215 216 216 217 219 220 220 221 223 224 227 229 232 236 239 241 245 248 251 254 257 260 263 266 268 271
Height
5604 5610 5617 5630 5638 5647 5653 5658 5666 5676 5683 5687 5694 5701 5710 5716 5721 5729 5736 5742 5749 5755 5761 5765 5770 5774 5778 5782 5786 5790 5793 5796 5798 5800 5803 5804 5805 5806 5807 5807 5808 5808 5807 5807
5589 5596 5610 5618 5624 5630 5637 5644 5653 5662 5669 5674 5681 5687 5695 5702 5710 5718 5725 5732 5739 5746 5751 5756 5761 5766 5770 5775 5779 5782 5786 5788 5791 5794 5796 5797 5798 5799 5800 5801 5801 5801 5801 5800
5576 5589 5597 5601 5608 5616 5623 5632 5642 5650 5656 5660 5667 5672 5681 5690 5698 5706 5714 5722 5729 5736 5742 5748 5753 5758 5763 5767 5771 5775 5778 5781 5784 5786 5788 5789 5791 5792 5794 5794 5794 5794 5794 5793
5564 5575 5580 5586 5594 5603 5611 5623 5631 5637 5642 5646 5653 5657 5669 5679 5686 5695 5704 5712 5720 5727 5733 5739 5744 5749 5754 5759 5763 5766 5770 5773 5775 5778 5780 5782 5784 5786 5786 5786 5786 5786 5786 5786
5553 5562 5567 5573 5584 5592 5602 5613 5618 5624 5629 5633 5639 5643 5656 5665 5673 5685 5695 5703 5710 5717 5723 5729 5735 5740 5745 5749 5753 5757 5761 5764 5767 5770 5772 5774 5776 5778 5778 5779 5779 5779 5779 5779
5543 5549 5554 5563 5573 5581 5590 5598 5604 5610 5614 5616 5627 5631 5640 5654 5666 5678 5686 5694 5700 5707 5713 5719 5724 5729 5735 5740 5744 5748 5752 5755 5758 5761 5764 5766 5768 5769 5770 5771 5771 5771 5771 5771
5532 5537 5543 5551 5559 5567 5574 5583 5590 5594 5597 5604 5617 5618 5628 5647 5659 5668 5676 5683 5689 5695 5702 5708 5713 5719 5725 5730 5735 5739 5743 5747 5750 5752 5755 5758 5760 5761 5762 5762 5763 5763 5763 5763
5521 5527 5533 5539 5546 5555 5563 5571 5579 5585 5591 5599 5605 5606 5622 5638 5648 5656 5664 5671 5677 5684 5690 5697 5703 5709 5714 5719 5724 5729 5733 5737 5741 5744 5747 5749 5751 5752 5753 5754 5755 5755 5755 5755
5513 5519 5525 5531 5538 5545 5552 5559 5571 5577 5582 5588 5592 5601 5613 5625 5635 5644 5653 5659 5666 5673 5680 5686 5693 5698 5704 5709 5714 5719 5724 5728 5731 5734 5737 5739 5742 5743 5745 5746 5746 5746 5746 5746
5504 5510 5516 5522 5527 5534 5543 5553 5559 5564 5570 5576 5583 5591 5603 5615 5624 5634 5641 5649 5656 5662 5669 5675 5681 5687 5693 5699 5704 5709 5713 5718 5722 5725 5727 5730 5732 5734 5736 5736 5737 5738 5738 5738
5497 5501 5507 5512 5517 5525 5533 5540 5546 5554 5561 5569 5575 5585 5597 5606 5615 5623 5631 5639 5645 5652 5658 5664 5671 5677 5683 5688 5694 5699 5703 5708 5712 5715 5718 5721 5723 5725 5726 5727 5729 5729 5729 5729
5489 5493 5497 5504 5511 5517 5524 5530 5537 5545 5552 5560 5568 5580 5587 5597 5604 5612 5620 5627 5634 5641 5647 5654 5660 5666 5672 5678 5684 5689 5694 5698 5702 5706 5709 5711 5713 5715 5717 5719 5720 5720 5720 5720
5481 5486 5490 5495 5503 5507 5512 5519 5527 5536 5543 5550 5559 5572 5579 5587 5595 5602 5609 5616 5623 5630 5637 5643 5650 5656 5662 5668 5674 5679 5684 5688 5692 5696 5699 5702 5704 5706 5708 5710 5711 5711 5712 5712
5473 5477 5482 5486 5491 5497 5504 5510 5517 5525 5531 5540 5551 5563 5571 5578 5585 5593 5600 5607 5614 5621 5627 5634 5640 5646 5652 5658 5664 5669 5674 5678 5682 5686 5689 5693 5695 5698 5699 5701 5701 5702 5703 5703
5464 5469 5473 5477 5482 5488 5494 5501 5508 5515 5524 5533 5545 5554 5562 5569 5576 5584 5591 5598 5605 5612 5619 5625 5631 5637 5643 5649 5654 5659 5664 5668 5673 5676 5680 5683 5686 5688 5690 5691 5693 5693 5694 5694
5456 5461 5465 5470 5475 5479 5485 5493 5500 5508 5517 5525 5535 5544 5553 5560 5567 5575 5582 5589 5596 5603 5609 5616 5622 5628 5634 5639 5645 5650 5655 5659 5663 5667 5671 5674 5676 5679 5681 5683 5684 5685 5685 5685
5449 5453 5458 5463 5467 5471 5478 5486 5493 5501 5510 5518 5526 5537 5544 5551 5559 5566 5573 5580 5587 5594 5600 5607 5613 5619 5624 5630 5635 5641 5645 5650 5654 5658 5662 5665 5668 5670 5672 5674 5675 5676 5676 5677
5443 5446 5450 5455 5460 5465 5476 5481 5487 5494 5502 5509 5518 5526 5534 5542 5549 5556 5563 5571 5578 5585 5591 5598 5604 5610 5615 5621 5626 5631 5636 5641 5646 5649 5653 5656 5659 5661 5663 5665 5666 5667 5668 5668
5436 5439 5443 5447 5451 5457 5467 5474 5480 5486 5493 5501 5509 5517 5524 5531 5537 5546 5555 5562 5569 5576 5582 5589 5595 5601 5607 5612 5618 5623 5628 5633 5637 5641 5644 5648 5650 5653 5655 5656 5657 5658 5659 5659
5429 5432 5437 5440 5444 5450 5462 5468 5472 5477 5484 5493 5499 5507 5514 5520 5529 5540 5547 5553 5560 5567 5574 5580 5587 5593 5599 5605 5610 5615 5620 5625 5629 5633 5636 5639 5642 5644 5646 5648 5649 5649 5650 5650
5421 5424 5428 5432 5436 5443 5453 5458 5462 5470 5479 5485 5491 5498 5504 5512 5523 5532 5538 5545 5553 5559 5566 5573 5579 5585 5591 5597 5602 5608 5612 5617 5621 5624 5628 5630 5633 5635 5637 5639 5640 5641 5641 5641
5413 5417 5421 5425 5429 5439 5444 5448 5455 5462 5470 5476 5482 5489 5496 5505 5513 5520 5529 5537 5544 5551 5558 5565 5571 5578 5583 5589 5595 5600 5605 5609 5612 5616 5619 5622 5625 5627 5628 5630 5631 5632 5632 5633
5405 5410 5413 5418 5425 5430 5434 5440 5446 5452 5459 5466 5472 5480 5488 5496 5503 5512 5520 5528 5535 5543 5550 5557 5563 5570 5575 5581 5587 5592 5596 5601 5604 5608 5611 5614 5616 5618 5620 5621 5623 5623 5624 5624
5397 5400 5403 5408 5414 5420 5425 5430 5436 5443 5449 5457 5464 5472 5479 5487 5495 5503 5512 5520 5527 5535 5542 5549 5555 5561 5568 5573 5579 5584 5588 5593 5596 5600 5603 5606 5608 5610 5612 5613 5614 5615 5615 5615
5388 5391 5394 5398 5406 5411 5417 5422 5428 5434 5441 5449 5456 5464 5472 5479 5487 5495 5503 5511 5519 5526 5534 5540 5547 5554 5560 5565 5571 5576 5580 5585 5589 5592 5595 5597 5600 5602 5603 5605 5606 5606 5607 5607
5380 5383 5386 5391 5398 5401 5408 5414 5419 5426 5434 5441 5449 5457 5465 5472 5480 5487 5495 5503 5510 5518 5525 5532 5539 5546 5552 5557 5563 5568 5572 5577 5581 5584 5587 5589 5592 5594 5595 5596 5597 5598 5598 5598